• En España
  • Lista de países
  • Para 7 días
  • Temperatura del agua
  • Mapa Satelital
  • El tiempo en el mapa
  • Informadores
  • user-avatar
    Iniciar sesión

    Tiempo cada hora Mezhozere

    Hoy, 25 Septiembre, Martes

    Tiempo Temperatura Precipitaciones Viento Presión Humedad
    00:00 +6°C° 1.4 mm 4 mps 734 mmHg 94%
    01:00 +6°C° 1.4 mm 5 mps 733 mmHg 94%
    02:00 +6°C° 0 mm 4 mps 733 mmHg 93%
    03:00 +6°C° 0.9 mm 4 mps 734 mmHg 93%
    04:00 +6°C° 0.9 mm 5 mps 734 mmHg 92%
    05:00 +5°C° 0.9 mm 6 mps 734 mmHg 92%
    06:00 +5°C° 0.4 mm 6 mps 735 mmHg 90%
    07:00 +5°C° 0.4 mm 6 mps 736 mmHg 88%
    08:00 +5°C° 0 mm 6 mps 736 mmHg 85%
    09:00 +5°C° 0.1 mm 6 mps 737 mmHg 81%
    10:00 +7°C° 0.1 mm 6 mps 738 mmHg 77%
    11:00 +7°C° 0.1 mm 6 mps 738 mmHg 73%
    12:00 +8°C° 0 mm 6 mps 739 mmHg 69%
    13:00 +8°C° 0 mm 6 mps 740 mmHg 66%
    14:00 +9°C° 0 mm 6 mps 741 mmHg 62%
    15:00 +8°C° 0 mm 6 mps 741 mmHg 65%
    16:00 +7°C° 0 mm 5 mps 742 mmHg 68%
    17:00 +7°C° 0 mm 5 mps 743 mmHg 71%
    18:00 +6°C° 0 mm 5 mps 744 mmHg 73%
    19:00 +5°C° 0 mm 4 mps 744 mmHg 75%
    20:00 +5°C° 0 mm 4 mps 745 mmHg 77%
    21:00 +4°C° 0 mm 4 mps 746 mmHg 76%
    22:00 +4°C° 0 mm 4 mps 746 mmHg 76%
    23:00 +3°C° 0 mm 4 mps 747 mmHg 75%

    Mañana, 26 Septiembre, Miércoles

    Tiempo Temperatura Precipitaciones Viento Presión Humedad
    00:00 +3°C° 0 mm 4 mps 748 mmHg 76%
    01:00 +2°C° 0 mm 3 mps 748 mmHg 76%
    02:00 +2°C° 0 mm 3 mps 748 mmHg 77%
    03:00 +1°C° 0 mm 3 mps 749 mmHg 78%
    04:00 +1°C° 0 mm 3 mps 749 mmHg 80%
    05:00 +1°C° 0 mm 3 mps 749 mmHg 82%
    06:00 +2°C° 0 mm 3 mps 749 mmHg 81%
    07:00 +4°C° 0 mm 4 mps 750 mmHg 81%
    08:00 +5°C° 0 mm 4 mps 750 mmHg 81%
    09:00 +6°C° 0 mm 4 mps 749 mmHg 75%
    10:00 +8°C° 0 mm 4 mps 749 mmHg 69%
    11:00 +9°C° 0 mm 5 mps 749 mmHg 64%
    12:00 +9°C° 0 mm 5 mps 748 mmHg 62%
    13:00 +10°C° 0 mm 5 mps 748 mmHg 60%
    14:00 +10°C° 0 mm 5 mps 747 mmHg 58%
    15:00 +9°C° 0.1 mm 6 mps 746 mmHg 62%
    16:00 +9°C° 0.1 mm 6 mps 745 mmHg 65%
    17:00 +8°C° 0.1 mm 6 mps 744 mmHg 69%
    18:00 +7°C° 1 mm 6 mps 742 mmHg 75%
    19:00 +6°C° 1 mm 7 mps 741 mmHg 81%
    20:00 +5°C° 1 mm 8 mps 740 mmHg 87%
    21:00 +5°C° 1.5 mm 7 mps 738 mmHg 87%
    22:00 +5°C° 1.5 mm 7 mps 737 mmHg 88%
    23:00 +5°C° 1.5 mm 7 mps 736 mmHg 88%

    Pasado mañana, 27 Septiembre, Jueves

    Tiempo Temperatura Precipitaciones Viento Presión Humedad
    00:00 +6°C° 1.6 mm 7 mps 735 mmHg 90%
    01:00 +7°C° 1.6 mm 6 mps 734 mmHg 91%
    02:00 +7°C° 1.6 mm 5 mps 733 mmHg 92%
    03:00 +7°C° 0.9 mm 5 mps 733 mmHg 91%
    04:00 +7°C° 0.9 mm 5 mps 733 mmHg 89%
    05:00 +6°C° 0.9 mm 5 mps 733 mmHg 87%
    06:00 +6°C° 0 mm 5 mps 734 mmHg 85%
    07:00 +6°C° 0 mm 5 mps 734 mmHg 83%
    08:00 +5°C° 0 mm 6 mps 735 mmHg 81%
    09:00 +7°C° 0.3 mm 6 mps 735 mmHg 78%
    10:00 +7°C° 0.3 mm 6 mps 735 mmHg 76%
    11:00 +8°C° 0.3 mm 7 mps 735 mmHg 73%
    12:00 +8°C° 0.3 mm 7 mps 735 mmHg 72%
    13:00 +8°C° 0.3 mm 7 mps 735 mmHg 72%
    14:00 +8°C° 0.3 mm 7 mps 736 mmHg 72%
    15:00 +7°C° 0.1 mm 6 mps 736 mmHg 73%
    16:00 +7°C° 0.1 mm 6 mps 736 mmHg 74%
    17:00 +6°C° 0.1 mm 5 mps 737 mmHg 76%
    18:00 +6°C° 0 mm 5 mps 737 mmHg 76%
    19:00 +6°C° 0 mm 5 mps 738 mmHg 76%
    20:00 +5°C° 0 mm 5 mps 738 mmHg 77%
    21:00 +5°C° 0 mm 4 mps 738 mmHg 77%
    22:00 +4°C° 0 mm 4 mps 739 mmHg 78%
    23:00 +4°C° 0 mm 4 mps 739 mmHg 78%

    28 Septiembre, Viernes

    Tiempo Temperatura Precipitaciones Viento Presión Humedad
    00:00 +4°C° 0 mm 4 mps 739 mmHg 80%
    01:00 +3°C° 0 mm 4 mps 739 mmHg 82%
    02:00 +3°C° 0 mm 4 mps 739 mmHg 84%
    03:00 +3°C° 0.2 mm 3 mps 739 mmHg 85%
    04:00 +3°C° 0.2 mm 3 mps 738 mmHg 87%
    05:00 +3°C° 0.2 mm 3 mps 738 mmHg 88%
    06:00 +3°C° 1.3 mm 3 mps 737 mmHg 90%
    07:00 +3°C° 1.3 mm 3 mps 736 mmHg 91%
    08:00 +4°C° 1.3 mm 2 mps 735 mmHg 93%
    09:00 +4°C° 1.8 mm 2 mps 734 mmHg 92%
    10:00 +3°C° 1.8 mm 3 mps 733 mmHg 92%
    11:00 +3°C° 1.8 mm 3 mps 733 mmHg 92%
    12:00 +4°C° 0.3 mm 3 mps 733 mmHg 90%
    13:00 +4°C° 0.3 mm 3 mps 734 mmHg 88%
    14:00 +4°C° 0.3 mm 4 mps 734 mmHg 86%
    15:00 +4°C° 0.1 mm 4 mps 736 mmHg 85%
    16:00 +4°C° 0.1 mm 3 mps 737 mmHg 84%
    17:00 +3°C° 0.1 mm 3 mps 738 mmHg 83%
    18:00 +3°C° 0 mm 3 mps 739 mmHg 84%
    19:00 +2°C° 0 mm 3 mps 740 mmHg 86%
    20:00 +1°C° 0 mm 3 mps 741 mmHg 87%
    21:00 +1°C° 0 mm 3 mps 742 mmHg 89%
    22:00 +1°C° 0 mm 2 mps 742 mmHg 90%
    23:00 +1°C° 0 mm 2 mps 743 mmHg 91%

    29 Septiembre, Sábado

    Tiempo Temperatura Precipitaciones Viento Presión Humedad
    00:00 +1°C° 0 mm 2 mps 743 mmHg 91%
    01:00 -1°C° 0 mm 2 mps 744 mmHg 91%
    02:00 -1°C° 0 mm 2 mps 745 mmHg 91%
    03:00 -1°C° 0 mm 2 mps 745 mmHg 90%
    04:00 -1°C° 0 mm 3 mps 746 mmHg 89%
    05:00 -2°C° 0 mm 3 mps 746 mmHg 88%
    06:00 -1°C° 0 mm 3 mps 747 mmHg 84%
    07:00 0°C° 0 mm 3 mps 747 mmHg 80%
    08:00 +1°C° 0 mm 3 mps 748 mmHg 76%
    09:00 +2°C° 0 mm 3 mps 749 mmHg 71%
    10:00 +3°C° 0 mm 4 mps 749 mmHg 65%
    11:00 +4°C° 0 mm 4 mps 750 mmHg 60%
    12:00 +4°C° 0.1 mm 4 mps 750 mmHg 58%
    13:00 +5°C° 0.1 mm 4 mps 750 mmHg 56%
    14:00 +5°C° 0.1 mm 4 mps 751 mmHg 55%
    15:00 +4°C° 0 mm 3 mps 751 mmHg 60%
    16:00 +4°C° 0 mm 2 mps 751 mmHg 65%
    17:00 +3°C° 0 mm 2 mps 752 mmHg 70%
    18:00 +2°C° 0 mm 2 mps 752 mmHg 72%
    19:00 +1°C° 0 mm 2 mps 752 mmHg 75%
    20:00 -1°C° 0 mm 2 mps 753 mmHg 77%
    21:00 -1°C° 0 mm 2 mps 753 mmHg 78%
    22:00 -1°C° 0 mm 2 mps 753 mmHg 78%
    23:00 -1°C° 0 mm 2 mps 754 mmHg 79%

    30 Septiembre, Domingo

    Tiempo Temperatura Precipitaciones Viento Presión Humedad
    00:00 -1°C° 0 mm 2 mps 753 mmHg 77%
    01:00 -1°C° 0 mm 3 mps 753 mmHg 75%
    02:00 -1°C° 0 mm 3 mps 753 mmHg 74%
    03:00 -1°C° 0 mm 3 mps 753 mmHg 73%
    04:00 -1°C° 0 mm 3 mps 753 mmHg 72%
    05:00 -1°C° 0 mm 4 mps 753 mmHg 71%
    06:00 0°C° 0 mm 4 mps 752 mmHg 70%
    07:00 +1°C° 0 mm 5 mps 752 mmHg 69%
    08:00 +2°C° 0 mm 5 mps 751 mmHg 69%
    09:00 +3°C° 0 mm 5 mps 751 mmHg 66%
    10:00 +5°C° 0 mm 6 mps 751 mmHg 63%
    11:00 +7°C° 0 mm 6 mps 750 mmHg 60%
    12:00 +7°C° 0 mm 6 mps 750 mmHg 64%
    13:00 +7°C° 0 mm 6 mps 750 mmHg 68%
    14:00 +7°C° 0 mm 5 mps 750 mmHg 71%
    15:00 +7°C° 0 mm 5 mps 750 mmHg 73%
    16:00 +7°C° 0 mm 5 mps 749 mmHg 75%
    17:00 +6°C° 0 mm 4 mps 749 mmHg 77%
    18:00 +6°C° 0 mm 4 mps 749 mmHg 78%
    19:00 +6°C° 0 mm 4 mps 749 mmHg 80%
    20:00 +6°C° 0 mm 4 mps 749 mmHg 81%
    21:00 +6°C° 0 mm 4 mps 749 mmHg 82%
    22:00 +6°C° 0 mm 4 mps 749 mmHg 82%
    23:00 +6°C° 0 mm 4 mps 749 mmHg 82%
    Mostrar más